,,Stat5,,Stat1,,Stat2,,Stat3,,Stat4,,Wind1,,Wind1,
time,status,PA1M_AVG,status,PR1M_SUM,status,RH1M_AVG,status,SR1M_AVG,status,TA1M_AVG,status,W1dAve1m,status,W1sAve1m,
2000-10-18, 00:00:01,VALID,917.018,VALID,0,VALID,90.9464,VALID,-0.0169808,VALID,19.6816,VALID,93,VALID,0.493273,
2000-10-18, 00:01:01,VALID,917.01,VALID,0,VALID,91.3597,VALID,0,VALID,19.7114,VALID,106,VALID,1.05427,
2000-10-18, 00:02:00,VALID,917.004,VALID,0,VALID,90.8129,VALID,0,VALID,19.698,VALID,135,VALID,0.81065,
2000-10-18, 00:03:00,VALID,917.016,VALID,0,VALID,90.1046,VALID,-0.0169808,VALID,19.7112,VALID,66,VALID,0.754317,
2000-10-18, 00:04:00,VALID,917.029,VALID,0,VALID,90.4683,VALID,0,VALID,19.7213,VALID,109,VALID,1.81094,
2000-10-18, 00:05:00,VALID,917.007,VALID,0,VALID,90.3831,VALID,0.0169808,VALID,19.7241,VALID,142,VALID,0.858073,
2000-10-18, 00:06:00,VALID,917.02,VALID,0,VALID,89.7575,VALID,0,VALID,19.7206,VALID,282,VALID,1.01478,
2000-10-18, 00:07:00,VALID,917.011,VALID,0,VALID,89.6964,VALID,0,VALID,19.7079,VALID,292,VALID,1.44757,
2000-10-18, 00:08:01,VALID,916.999,VALID,0,VALID,89.2844,VALID,0,VALID,19.7012,VALID,314,VALID,1.41596,
2000-10-18, 00:09:00,VALID,916.978,VALID,0,VALID,89.0441,VALID,0,VALID,19.7139,VALID,352,VALID,1.49548,
2000-10-18, 00:10:01,VALID,916.952,VALID,0,VALID,89.8249,VALID,0,VALID,19.7432,VALID,36,VALID,1.42168,
2000-10-18, 00:11:00,VALID,916.93,VALID,0,VALID,89.6634,VALID,0,VALID,19.7432,VALID,309,VALID,0.904605,
2000-10-18, 00:12:01,VALID,916.92,VALID,0,VALID,90.378,VALID,0,VALID,19.7594,VALID,80,VALID,1.34128,
2000-10-18, 00:13:01,VALID,916.914,VALID,0,VALID,90.2013,VALID,0.0169808,VALID,19.7397,VALID,192,VALID,1.0257,
2000-10-18, 00:14:00,VALID,916.896,VALID,0,VALID,89.1802,VALID,0,VALID,19.7363,VALID,349,VALID,2.25721,
2000-10-18, 00:15:01,VALID,916.914,VALID,0,VALID,89.0848,VALID,0.0339617,VALID,19.7715,VALID,314,VALID,1.39802,
2000-10-18, 00:16:00,VALID,916.907,VALID,0,VALID,89.0708,VALID,0.0169808,VALID,19.7852,VALID,40,VALID,0.581826,
2000-10-18, 00:17:00,VALID,916.908,VALID,0,VALID,89.54,VALID,0,VALID,19.8143,VALID,151,VALID,0.544531,
2000-10-18, 00:18:01,VALID,916.918,VALID,0,VALID,89.7677,VALID,0,VALID,19.8342,VALID,164,VALID,0.780165,
2000-10-18, 00:19:01,VALID,916.929,VALID,0,VALID,89.8554,VALID,0,VALID,19.828,VALID,150,VALID,0.45397,
2000-10-18, 00:20:00,VALID,916.933,VALID,0,VALID,90.083,VALID,0,VALID,19.7847,VALID,38,VALID,0.891653,
2000-10-18, 00:21:00,VALID,916.913,VALID,0,VALID,90.0016,VALID,0,VALID,19.7889,VALID,107,VALID,0.777232,
2000-10-18, 00:22:01,VALID,916.905,VALID,0,VALID,90.4874,VALID,0,VALID,19.7855,VALID,111,VALID,0.887035,
2000-10-18, 00:23:01,VALID,916.889,VALID,0,VALID,90.659,VALID,-0.0169808,VALID,19.7914,VALID,275,VALID,0.250617,
2000-10-18, 00:24:00,VALID,916.879,VALID,0,VALID,90.4162,VALID,0.0169808,VALID,19.7984,VALID,179,VALID,0.347991,
2000-10-18, 00:25:00,VALID,916.849,VALID,0,VALID,90.7913,VALID,0,VALID,19.7725,VALID,111,VALID,1.02945,
2000-10-18, 00:26:00,VALID,916.839,VALID,0,VALID,90.8549,VALID,0,VALID,19.7271,VALID,110,VALID,0.588325,
2000-10-18, 00:27:00,VALID,916.827,VALID,0,VALID,91.0304,VALID,0,VALID,19.7047,VALID,94,VALID,0.840049,
2000-10-18, 00:28:01,VALID,916.837,VALID,0,VALID,91.071,VALID,0,VALID,19.6885,VALID,350,VALID,0.438117,
2000-10-18, 00:29:01,VALID,916.841,VALID,0,VALID,91.1931,VALID,-0.0169808,VALID,19.6885,VALID,46,VALID,0.701225,
2000-10-18, 00:30:00,VALID,916.855,VALID,0,VALID,91.4068,VALID,0,VALID,19.6848,VALID,100,VALID,1.0793,
2000-10-18, 00:31:00,VALID,916.852,VALID,0,VALID,91.5962,VALID,0,VALID,19.6821,VALID,108,VALID,0.947917,
2000-10-18, 00:32:01,VALID,916.856,VALID,0,VALID,91.5835,VALID,-0.0169808,VALID,19.6659,VALID,67,VALID,0.653446,
2000-10-18, 00:33:01,VALID,916.858,VALID,0,VALID,91.4932,VALID,-0.0339617,VALID,19.6401,VALID,81,VALID,1.14696,
2000-10-18, 00:34:00,VALID,916.846,VALID,0,VALID,91.8989,VALID,0,VALID,19.6267,VALID,88,VALID,0.501603,
2000-10-18, 00:35:00,VALID,916.847,VALID,0,VALID,91.6992,VALID,-0.0169808,VALID,19.6242,VALID,181,VALID,0.159926,
2000-10-18, 00:36:01,VALID,916.818,VALID,0,VALID,91.6267,VALID,0,VALID,19.6167,VALID,102,VALID,1.0582,
2000-10-18, 00:37:01,VALID,916.809,VALID,0,VALID,92.0324,VALID,0,VALID,19.6272,VALID,109,VALID,0.719984,
2000-10-18, 00:38:01,VALID,916.796,VALID,0,VALID,91.7412,VALID,0,VALID,19.6272,VALID,102,VALID,1.19451,
2000-10-18, 00:39:01,VALID,916.781,VALID,0,VALID,91.7501,VALID,0,VALID,19.6242,VALID,87,VALID,1.81127,
2000-10-18, 00:40:01,VALID,916.748,VALID,0,VALID,91.731,VALID,0,VALID,19.6016,VALID,98,VALID,1.1541,
2000-10-18, 00:41:01,VALID,916.754,VALID,0,VALID,91.9103,VALID,0.0339617,VALID,19.5884,VALID,105,VALID,0.815039,
2000-10-18, 00:42:01,VALID,916.736,VALID,0,VALID,92.1049,VALID,-0.0169808,VALID,19.5844,VALID,93,VALID,0.579527,
2000-10-18, 00:43:01,VALID,916.737,VALID,0,VALID,92.3236,VALID,0,VALID,19.5881,VALID,101,VALID,1.08388,
2000-10-18, 00:44:01,VALID,916.73,VALID,0,VALID,92.199,VALID,-0.0169808,VALID,19.569,VALID,57,VALID,0.975561,
2000-10-18, 00:45:01,VALID,916.72,VALID,0,VALID,92.1799,VALID,-0.0169808,VALID,19.566,VALID,340,VALID,0.32492,
2000-10-18, 00:46:01,VALID,916.728,VALID,0,VALID,92.2511,VALID,0,VALID,19.5695,VALID,93,VALID,0.649071,
2000-10-18, 00:47:01,VALID,916.733,VALID,0,VALID,92.2409,VALID,0,VALID,19.5625,VALID,99,VALID,0.565304,
2000-10-18, 00:48:01,VALID,916.702,VALID,0,VALID,92.3528,VALID,0,VALID,19.5591,VALID,89,VALID,0.916233,
2000-10-18, 00:49:01,VALID,916.684,VALID,0,VALID,92.3821,VALID,0,VALID,19.5623,VALID,85,VALID,0.496745,
2000-10-18, 00:50:01,VALID,916.684,VALID,0,VALID,92.3783,VALID,0,VALID,19.5653,VALID,104,VALID,0.348357,
2000-10-18, 00:51:01,VALID,916.67,VALID,0,VALID,92.3706,VALID,-0.0339617,VALID,19.5658,VALID,152,VALID,0.436444,
2000-10-18, 00:52:01,VALID,916.647,VALID,0,VALID,92.3159,VALID,0,VALID,19.5531,VALID,118,VALID,0.243389,
2000-10-18, 00:53:01,VALID,916.641,VALID,0,VALID,92.3846,VALID,-0.0339617,VALID,19.5464,VALID,207,VALID,0.202919,
2000-10-18, 00:54:01,VALID,916.618,VALID,0,VALID,92.48,VALID,0,VALID,19.5591,VALID,107,VALID,0.593369,
2000-10-18, 00:55:01,VALID,916.602,VALID,0,VALID,92.728,VALID,-0.0169808,VALID,19.5623,VALID,107,VALID,0.439904,
2000-10-18, 00:56:01,VALID,916.581,VALID,0,VALID,92.7152,VALID,-0.0169808,VALID,19.5596,VALID,96,VALID,0.79223,
2000-10-18, 00:57:01,VALID,916.558,VALID,0,VALID,92.9289,VALID,-0.0339617,VALID,19.5561,VALID,110,VALID,0.602706,
2000-10-18, 00:58:00,VALID,916.527,VALID,0,VALID,93.0306,VALID,-0.0169808,VALID,19.569,VALID,107,VALID,0.414663,
2000-10-18, 00:59:00,VALID,916.497,VALID,0,VALID,93.1323,VALID,0,VALID,19.5268,VALID,88,VALID,0.868032,
2000-10-18, 01:00:00,VALID,916.486,VALID,0,VALID,93.0102,VALID,0,VALID,19.5079,VALID,96,VALID,1.42231,
2000-10-18, 01:01:00,VALID,916.464,VALID,0,VALID,93.0904,VALID,0,VALID,19.5012,VALID,95,VALID,1.26282,
2000-10-18, 01:02:00,VALID,916.459,VALID,0,VALID,93.1374,VALID,-0.0339617,VALID,19.5046,VALID,94,VALID,1.52206,
2000-10-18, 01:03:00,VALID,916.443,VALID,0,VALID,93.2468,VALID,-0.0339617,VALID,19.4815,VALID,96,VALID,1.73516,
2000-10-18, 01:04:00,VALID,916.445,VALID,0,VALID,93.2366,VALID,0,VALID,19.485,VALID,95,VALID,2.03577,
2000-10-18, 01:05:00,VALID,916.438,VALID,0,VALID,93.2086,VALID,-0.0169808,VALID,19.4853,VALID,95,VALID,2.4401,
2000-10-18, 01:06:00,VALID,916.417,VALID,0,VALID,93.2493,VALID,-0.0339617,VALID,19.4885,VALID,84,VALID,1.78043,
2000-10-18, 01:07:00,VALID,916.432,VALID,0,VALID,92.8805,VALID,-0.0509425,VALID,19.4915,VALID,105,VALID,1.70566,
2000-10-18, 01:08:00,VALID,916.44,VALID,0,VALID,93.1806,VALID,-0.0339617,VALID,19.5143,VALID,95,VALID,1.89885,
2000-10-18, 01:09:00,VALID,916.442,VALID,0,VALID,93.1323,VALID,-0.0509425,VALID,19.5372,VALID,96,VALID,1.69387,
2000-10-18, 01:10:00,VALID,916.424,VALID,0,VALID,93.4146,VALID,-0.0509425,VALID,19.521,VALID,93,VALID,1.39004,
2000-10-18, 01:11:00,VALID,916.425,VALID,0,VALID,93.6079,VALID,-0.0169808,VALID,19.5046,VALID,99,VALID,1.5004,
2000-10-18, 01:12:00,VALID,916.388,VALID,0,VALID,93.4935,VALID,0,VALID,19.4979,VALID,101,VALID,1.27618,
2000-10-18, 01:13:00,VALID,916.374,VALID,0,VALID,93.337,VALID,0,VALID,19.4915,VALID,123,VALID,0.530599,
2000-10-18, 01:14:00,VALID,916.385,VALID,0,VALID,93.2175,VALID,0,VALID,19.4818,VALID,88,VALID,1.22917,
2000-10-18, 01:15:00,VALID,916.344,VALID,0,VALID,93.2722,VALID,-0.0169808,VALID,19.4987,VALID,87,VALID,0.775338,
2000-10-18, 01:16:00,VALID,916.332,VALID,0,VALID,93.4083,VALID,0.0169808,VALID,19.4813,VALID,84,VALID,0.198691,
2000-10-18, 01:17:00,VALID,916.315,VALID,0,VALID,93.5176,VALID,0.101885,VALID,19.4937,VALID,81,VALID,0.925305,
2000-10-18, 01:18:00,VALID,916.298,VALID,0,VALID,93.3396,VALID,0.0679233,VALID,19.4739,VALID,328,VALID,1.09882,
2000-10-18, 01:19:00,VALID,916.273,VALID,0,VALID,93.2213,VALID,0.0679233,VALID,19.5357,VALID,133,VALID,0.655273,
2000-10-18, 01:20:00,VALID,916.261,VALID,0,VALID,93.2201,VALID,0.0849042,VALID,19.5648,VALID,241,VALID,1.27204,
2000-10-18, 01:21:00,VALID,916.238,VALID,0,VALID,93.407,VALID,0.101885,VALID,19.5807,VALID,87,VALID,0.892969,
2000-10-18, 01:22:00,VALID,916.252,VALID,0,VALID,93.3994,VALID,0.0679233,VALID,19.5837,VALID,96,VALID,1.07031,
2000-10-18, 01:23:00,VALID,916.241,VALID,0,VALID,93.6181,VALID,0.0679233,VALID,19.5901,VALID,105,VALID,1.37788,
2000-10-18, 01:24:00,VALID,916.228,VALID,0,VALID,93.955,VALID,0.0849042,VALID,19.62,VALID,102,VALID,1.14105,
2000-10-18, 01:25:00,VALID,916.223,VALID,0,VALID,94.3009,VALID,0.0679233,VALID,19.613,VALID,88,VALID,1.34238,
2000-10-18, 01:26:00,VALID,916.204,VALID,0,VALID,94.072,VALID,0.0679233,VALID,19.5971,VALID,47,VALID,0.404514,
2000-10-18, 01:27:00,VALID,916.211,VALID,0,VALID,93.95,VALID,0.101885,VALID,19.5807,VALID,50,VALID,0.38598,
2000-10-18, 01:28:00,VALID,916.203,VALID,0,VALID,93.9589,VALID,0.0679233,VALID,19.5877,VALID,128,VALID,0.83347,
2000-10-18, 01:29:00,VALID,916.193,VALID,0,VALID,94.0415,VALID,0.0849042,VALID,19.5837,VALID,214,VALID,0.334044,
2000-10-18, 01:30:00,VALID,916.19,VALID,0,VALID,93.7376,VALID,0.0679233,VALID,19.5904,VALID,184,VALID,0.503084,
2000-10-18, 01:31:00,VALID,916.18,VALID,0,VALID,94.1916,VALID,0.0169808,VALID,19.5785,VALID,43,VALID,0.838477,
2000-10-18, 01:32:00,VALID,916.151,VALID,0,VALID,94.4967,VALID,0,VALID,19.5566,VALID,355,VALID,0.783512,
2000-10-18, 01:33:00,VALID,916.141,VALID,0,VALID,94.2984,VALID,-0.0169808,VALID,19.5437,VALID,267,VALID,0.622327,
2000-10-18, 01:34:00,VALID,916.129,VALID,0,VALID,93.7554,VALID,-0.0169808,VALID,19.5367,VALID,321,VALID,1.19305,
2000-10-18, 01:35:00,VALID,916.113,VALID,0,VALID,94.0339,VALID,-0.0339617,VALID,19.5531,VALID,90,VALID,0.945112,
2000-10-18, 01:36:00,VALID,916.111,VALID,0,VALID,93.847,VALID,-0.0169808,VALID,19.5568,VALID,47,VALID,0.974029,
2000-10-18, 01:37:00,VALID,916.063,VALID,0,VALID,94.058,VALID,-0.0169808,VALID,19.566,VALID,97,VALID,1.41735,
2000-10-18, 01:38:00,VALID,916.062,VALID,0,VALID,94.1699,VALID,-0.0169808,VALID,19.566,VALID,90,VALID,0.750195,
2000-10-18, 01:39:00,VALID,916.053,VALID,0,VALID,94.2043,VALID,0,VALID,19.5633,VALID,1,VALID,0.604818,
2000-10-18, 01:40:00,VALID,916.042,VALID,0,VALID,94.3696,VALID,0,VALID,19.5695,VALID,123,VALID,0.952492,
2000-10-18, 01:41:00,VALID,916.031,VALID,0,VALID,94.5311,VALID,0,VALID,19.5695,VALID,151,VALID,0.419819,
2000-10-18, 01:42:00,VALID,916.041,VALID,0,VALID,94.2869,VALID,0,VALID,19.563,VALID,262,VALID,0.321205,
2000-10-18, 01:43:00,VALID,916.009,VALID,0,VALID,94.3416,VALID,-0.0339617,VALID,19.5598,VALID,212,VALID,0.216005,
2000-10-18, 01:44:00,VALID,915.992,VALID,0,VALID,94.7651,VALID,0,VALID,19.5563,VALID,59,VALID,0.788651,
2000-10-18, 01:45:00,VALID,915.987,VALID,0,VALID,94.9978,VALID,0,VALID,19.5402,VALID,99,VALID,0.678348,
2000-10-18, 01:46:00,VALID,915.976,VALID,0,VALID,95.4314,VALID,0,VALID,19.5273,VALID,104,VALID,0.590144,
2000-10-18, 01:47:00,VALID,915.956,VALID,0,VALID,95.556,VALID,0.0169808,VALID,19.5143,VALID,84,VALID,1.13932,
2000-10-18, 01:48:00,VALID,915.935,VALID,0,VALID,95.5852,VALID,0,VALID,19.495,VALID,4,VALID,0.723067,
2000-10-18, 01:49:00,VALID,915.946,VALID,0,VALID,95.4365,VALID,0.0169808,VALID,19.4751,VALID,194,VALID,0.822985,
2000-10-18, 01:50:00,VALID,915.934,VALID,0,VALID,95.4072,VALID,0,VALID,19.4661,VALID,101,VALID,0.870144,
2000-10-18, 01:51:00,VALID,915.919,VALID,0,VALID,95.3627,VALID,0.0169808,VALID,19.4169,VALID,60,VALID,1.4668,
2000-10-18, 01:52:00,VALID,915.91,VALID,0,VALID,95.4759,VALID,0.0509425,VALID,19.3779,VALID,307,VALID,0.305689,
2000-10-18, 01:53:00,VALID,915.901,VALID,0,VALID,95.7035,VALID,0.0169808,VALID,19.3787,VALID,220,VALID,0.15605,
2000-10-18, 01:54:00,VALID,915.918,VALID,0,VALID,95.8586,VALID,0,VALID,19.3749,VALID,173,VALID,0.310177,
2000-10-18, 01:55:00,VALID,915.916,VALID,0,VALID,95.9502,VALID,0,VALID,19.3752,VALID,272,VALID,0.283053,
2000-10-18, 01:56:00,VALID,915.893,VALID,0,VALID,95.8777,VALID,-0.0169808,VALID,19.3526,VALID,263,VALID,0.526425,
2000-10-18, 01:57:00,VALID,915.894,VALID,0,VALID,95.8726,VALID,0.0339617,VALID,19.3262,VALID,308,VALID,0.917383,
2000-10-18, 01:58:00,VALID,915.901,VALID,0,VALID,96.1219,VALID,0,VALID,19.3076,VALID,71,VALID,0.579564,
2000-10-18, 01:59:00,VALID,915.901,VALID,0,VALID,96.3838,VALID,0,VALID,19.3041,VALID,22,VALID,0.266226,
2000-10-18, 02:00:00,VALID,915.888,VALID,0,VALID,96.3711,VALID,0,VALID,19.275,VALID,108,VALID,0.565584,
2000-10-18, 02:01:00,VALID,915.869,VALID,0,VALID,96.5758,VALID,0.0339617,VALID,19.2716,VALID,16,VALID,0.823242,
2000-10-18, 02:02:00,VALID,915.848,VALID,0,VALID,96.6063,VALID,0.0169808,VALID,19.2656,VALID,160,VALID,0.700977,
2000-10-18, 02:03:00,VALID,915.816,VALID,0,VALID,96.9497,VALID,0,VALID,19.275,VALID,101,VALID,1.39383,
2000-10-18, 02:04:00,VALID,915.813,VALID,0,VALID,97.0641,VALID,0.0169808,VALID,19.2785,VALID,33,VALID,0.687706,
2000-10-18, 02:05:00,VALID,915.798,VALID,0,VALID,97.0667,VALID,0.0169808,VALID,19.2562,VALID,86,VALID,1.36178,
2000-10-18, 02:06:00,VALID,915.768,VALID,0,VALID,97.2688,VALID,0,VALID,19.2755,VALID,96,VALID,1.45833,
2000-10-18, 02:07:00,VALID,915.758,VALID,0,VALID,97.265,VALID,0,VALID,19.2559,VALID,22,VALID,0.964527,
2000-10-18, 02:08:00,VALID,915.753,VALID,0,VALID,97.1353,VALID,0,VALID,19.2271,VALID,206,VALID,1.00341,
2000-10-18, 02:09:00,VALID,915.733,VALID,0,VALID,97.1544,VALID,0.0169808,VALID,19.2204,VALID,97,VALID,1.17578,
2000-10-18, 02:10:00,VALID,915.731,VALID,0,VALID,97.2561,VALID,0.0169808,VALID,19.2241,VALID,122,VALID,0.656467,
2000-10-18, 02:11:00,VALID,915.717,VALID,0,VALID,97.2625,VALID,0.0339617,VALID,19.2238,VALID,189,VALID,0.506811,
2000-10-18, 02:12:00,VALID,915.712,VALID,0,VALID,97.0514,VALID,0.0169808,VALID,19.1948,VALID,310,VALID,0.793285,
2000-10-18, 02:13:00,VALID,915.704,VALID,0,VALID,96.8721,VALID,0,VALID,19.1784,VALID,226,VALID,0.297276,
2000-10-18, 02:14:00,VALID,915.705,VALID,0,VALID,96.9281,VALID,0,VALID,19.1883,VALID,98,VALID,0.497327,
2000-10-18, 02:15:00,VALID,915.702,VALID,0,VALID,97.0107,VALID,0,VALID,19.1685,VALID,106,VALID,0.273247,
2000-10-18, 02:16:00,VALID,915.712,VALID,0,VALID,97.0603,VALID,0,VALID,19.1848,VALID,93,VALID,0.882813,
2000-10-18, 02:17:00,VALID,915.702,VALID,0,VALID,97.0578,VALID,0,VALID,19.1848,VALID,286,VALID,0.466005,
2000-10-18, 02:18:00,VALID,915.71,VALID,0,VALID,96.9497,VALID,0,VALID,19.162,VALID,177,VALID,0.504383,
2000-10-18, 02:19:00,VALID,915.685,VALID,0.2,VALID,97.0234,VALID,0,VALID,19.1496,VALID,111,VALID,0.759615,
2000-10-18, 02:20:00,VALID,915.685,VALID,0,VALID,97.19,VALID,0.0169808,VALID,19.1362,VALID,223,VALID,0.379645,
2000-10-18, 02:21:00,VALID,915.669,VALID,0,VALID,97.0819,VALID,0,VALID,19.1205,VALID,242,VALID,0.432292,
2000-10-18, 02:22:00,VALID,915.658,VALID,0,VALID,97.2498,VALID,-0.0169808,VALID,19.111,VALID,101,VALID,1.33994,
2000-10-18, 02:23:00,VALID,915.645,VALID,0,VALID,97.321,VALID,-0.0169808,VALID,19.0815,VALID,297,VALID,1.1489,
2000-10-18, 02:24:00,VALID,915.643,VALID,0,VALID,97.2574,VALID,-0.0169808,VALID,19.0527,VALID,341,VALID,0.569922,
2000-10-18, 02:25:00,VALID,915.652,VALID,0,VALID,97.3757,VALID,0.0169808,VALID,19.033,VALID,63,VALID,0.633429,
2000-10-18, 02:26:00,VALID,915.623,VALID,0,VALID,97.5753,VALID,0,VALID,19.0494,VALID,81,VALID,0.948785,
2000-10-18, 02:27:00,VALID,915.629,VALID,0,VALID,97.6058,VALID,0,VALID,19.0432,VALID,137,VALID,0.849918,
2000-10-18, 02:28:00,VALID,915.619,VALID,0,VALID,97.7126,VALID,0,VALID,19.0497,VALID,230,VALID,0.201758,
2000-10-18, 02:29:00,VALID,915.62,VALID,0,VALID,97.7406,VALID,0,VALID,19.0499,VALID,139,VALID,0.191406,
2000-10-18, 02:30:00,VALID,915.58,VALID,0,VALID,97.794,VALID,0,VALID,19.0467,VALID,184,VALID,0.827508,
2000-10-18, 02:31:00,VALID,915.586,VALID,0.2,VALID,97.8207,VALID,0,VALID,19.04,VALID,268,VALID,0.479102,
2000-10-18, 02:32:00,VALID,915.593,VALID,0,VALID,97.7927,VALID,0,VALID,19.0141,VALID,310,VALID,0.63742,
2000-10-18, 02:33:00,VALID,915.558,VALID,0,VALID,97.9377,VALID,0,VALID,19.04,VALID,88,VALID,0.883446,
2000-10-18, 02:34:00,VALID,915.542,VALID,0,VALID,98.042,VALID,0,VALID,19.0665,VALID,353,VALID,0.730686,
2000-10-18, 02:35:00,VALID,915.544,VALID,0,VALID,98.1386,VALID,-0.0169808,VALID,19.0623,VALID,292,VALID,0.546074,
2000-10-18, 02:36:00,VALID,915.531,VALID,0,VALID,98.1831,VALID,0,VALID,19.0827,VALID,280,VALID,0.171664,
2000-10-18, 02:37:00,VALID,915.547,VALID,0,VALID,98.1285,VALID,0,VALID,19.0559,VALID,30,VALID,1.43457,
2000-10-18, 02:38:00,VALID,915.505,VALID,0,VALID,98.1564,VALID,0,VALID,19.0559,VALID,40,VALID,1.2077,
2000-10-18, 02:39:00,VALID,915.508,VALID,0.2,VALID,98.2048,VALID,0,VALID,19.0628,VALID,67,VALID,0.410473,
2000-10-18, 02:40:00,VALID,915.521,VALID,0,VALID,98.2391,VALID,-0.0169808,VALID,19.0688,VALID,69,VALID,0.942383,
2000-10-18, 02:41:00,VALID,915.467,VALID,0,VALID,98.2404,VALID,0,VALID,19.073,VALID,33,VALID,0.781851,
2000-10-18, 02:42:00,VALID,915.462,VALID,0,VALID,98.3027,VALID,-0.0169808,VALID,19.0631,VALID,126,VALID,0.798242,
2000-10-18, 02:43:00,VALID,915.426,VALID,0,VALID,98.337,VALID,-0.0339617,VALID,19.0827,VALID,348,VALID,0.617599,
2000-10-18, 02:44:00,VALID,915.408,VALID,0,VALID,98.3179,VALID,-0.0169808,VALID,19.0434,VALID,301,VALID,0.690584,
2000-10-18, 02:45:00,VALID,915.387,VALID,0.2,VALID,98.398,VALID,0,VALID,19.0603,VALID,171,VALID,0.499789,
2000-10-18, 02:46:00,VALID,915.359,VALID,0,VALID,98.4642,VALID,0,VALID,19.0795,VALID,86,VALID,0.261328,
2000-10-18, 02:47:00,VALID,915.34,VALID,0,VALID,98.4603,VALID,0,VALID,19.0663,VALID,115,VALID,0.411024,
2000-10-18, 02:48:00,VALID,915.33,VALID,0,VALID,98.4527,VALID,-0.0169808,VALID,19.0534,VALID,149,VALID,0.336149,
2000-10-18, 02:49:00,VALID,915.297,VALID,0,VALID,98.515,VALID,0,VALID,19.0594,VALID,108,VALID,1.03906,
2000-10-18, 02:50:00,VALID,915.28,VALID,0,VALID,98.5633,VALID,-0.0169808,VALID,19.0824,VALID,239,VALID,0.814394,
2000-10-18, 02:51:00,VALID,915.273,VALID,0,VALID,98.5366,VALID,-0.0169808,VALID,19.0596,VALID,282,VALID,0.535567,
2000-10-18, 02:52:00,VALID,915.258,VALID,0,VALID,98.5786,VALID,0,VALID,19.0531,VALID,245,VALID,0.84375,
2000-10-18, 02:53:00,VALID,915.234,VALID,0,VALID,98.6702,VALID,-0.0509425,VALID,19.0862,VALID,78,VALID,0.481086,
2000-10-18, 02:54:00,VALID,915.225,VALID,0,VALID,98.6638,VALID,0,VALID,19.0887,VALID,252,VALID,0.558388,
2000-10-18, 02:55:00,VALID,915.209,VALID,0,VALID,98.6829,VALID,0,VALID,19.0917,VALID,122,VALID,0.85588,
2000-10-18, 02:56:00,VALID,915.191,VALID,0,VALID,98.6867,VALID,-0.0169808,VALID,19.1018,VALID,83,VALID,0.622396,
2000-10-18, 02:57:00,VALID,915.186,VALID,0,VALID,98.707,VALID,0,VALID,19.0951,VALID,217,VALID,0.555321,
2000-10-18, 02:58:00,VALID,915.196,VALID,0,VALID,98.7477,VALID,-0.0339617,VALID,19.1143,VALID,133,VALID,0.936061,
2000-10-18, 02:59:00,VALID,915.174,VALID,0,VALID,98.7897,VALID,0,VALID,19.1341,VALID,37,VALID,0.396875,
2000-10-18, 03:00:00,VALID,915.159,VALID,0,VALID,98.7592,VALID,0,VALID,19.1344,VALID,274,VALID,0.878906,
2000-10-18, 03:01:00,VALID,915.137,VALID,0,VALID,98.7592,VALID,-0.0339617,VALID,19.1177,VALID,28,VALID,1.18328,
2000-10-18, 03:02:00,VALID,915.145,VALID,0,VALID,98.7592,VALID,0,VALID,19.1076,VALID,341,VALID,1.85896,
2000-10-18, 03:03:00,VALID,915.088,VALID,0,VALID,98.7999,VALID,0,VALID,19.1274,VALID,11,VALID,1.19866,
2000-10-18, 03:04:00,VALID,915.114,VALID,0,VALID,98.7668,VALID,0,VALID,19.1046,VALID,238,VALID,0.985853,
2000-10-18, 03:05:00,VALID,915.102,VALID,0,VALID,98.7643,VALID,-0.0169808,VALID,19.0919,VALID,185,VALID,0.786595,
2000-10-18, 03:06:00,VALID,915.102,VALID,0,VALID,98.791,VALID,0,VALID,19.0889,VALID,144,VALID,0.467187,
2000-10-18, 03:07:00,VALID,915.101,VALID,0,VALID,98.838,VALID,0,VALID,19.0984,VALID,113,VALID,1.38662,
2000-10-18, 03:08:00,VALID,915.088,VALID,0,VALID,98.8533,VALID,-0.0169808,VALID,19.1051,VALID,299,VALID,0.671875,
2000-10-18, 03:09:00,VALID,915.089,VALID,0,VALID,98.8634,VALID,-0.0169808,VALID,19.1018,VALID,190,VALID,0.547081,
2000-10-18, 03:10:00,VALID,915.069,VALID,0,VALID,98.8253,VALID,0,VALID,19.0887,VALID,270,VALID,0.893092,
2000-10-18, 03:11:00,VALID,915.074,VALID,0,VALID,98.8406,VALID,-0.0169808,VALID,19.0924,VALID,303,VALID,0.926731,
2000-10-18, 03:12:00,VALID,915.05,VALID,0,VALID,98.8126,VALID,-0.0509425,VALID,19.0635,VALID,120,VALID,1.07754,
2000-10-18, 03:13:00,VALID,915.069,VALID,0,VALID,98.8075,VALID,-0.0339617,VALID,19.0439,VALID,39,VALID,1.0629,
2000-10-18, 03:14:00,VALID,915.035,VALID,0,VALID,98.838,VALID,-0.0169808,VALID,19.0476,VALID,222,VALID,1.28425,
2000-10-18, 03:15:00,VALID,915.029,VALID,0,VALID,98.8965,VALID,-0.0169808,VALID,19.0469,VALID,130,VALID,0.447635,
2000-10-18, 03:16:00,VALID,915.021,VALID,0,VALID,98.9092,VALID,-0.0679233,VALID,19.0534,VALID,204,VALID,0.466146,
2000-10-18, 03:17:00,VALID,915.029,VALID,0,VALID,98.899,VALID,-0.0509425,VALID,19.0432,VALID,178,VALID,0.506893,
2000-10-18, 03:18:00,VALID,915.018,VALID,0,VALID,98.9168,VALID,-0.0169808,VALID,19.0534,VALID,257,VALID,1.46426,
2000-10-18, 03:19:00,VALID,914.991,VALID,0,VALID,98.9168,VALID,-0.0509425,VALID,19.0471,VALID,281,VALID,0.381579,
2000-10-18, 03:20:00,VALID,914.979,VALID,0,VALID,98.9537,VALID,-0.0679233,VALID,19.0469,VALID,28,VALID,0.926282,
2000-10-18, 03:21:00,VALID,914.984,VALID,0,VALID,98.9817,VALID,-0.0509425,VALID,19.0725,VALID,109,VALID,1.38775,
2000-10-18, 03:22:00,VALID,914.976,VALID,0,VALID,99.0046,VALID,-0.0679233,VALID,19.0926,VALID,61,VALID,0.961328,
2000-10-18, 03:23:00,VALID,914.976,VALID,0,VALID,99.0008,VALID,-0.0339617,VALID,19.0862,VALID,310,VALID,0.879102,
2000-10-18, 03:24:00,VALID,914.964,VALID,0,VALID,98.941,VALID,-0.0509425,VALID,19.0536,VALID,211,VALID,0.927484,
2000-10-18, 03:25:00,VALID,914.964,VALID,0,VALID,98.9334,VALID,-0.0679233,VALID,19.0213,VALID,174,VALID,0.987048,
2000-10-18, 03:26:00,VALID,914.943,VALID,0,VALID,98.9804,VALID,-0.0509425,VALID,19.0375,VALID,234,VALID,1.19271,
2000-10-18, 03:27:00,VALID,914.939,VALID,0,VALID,98.9919,VALID,-0.0679233,VALID,19.0407,VALID,349,VALID,0.836338,
2000-10-18, 03:28:00,VALID,914.953,VALID,0,VALID,99.002,VALID,-0.0679233,VALID,19.0506,VALID,217,VALID,0.321791,
2000-10-18, 03:29:00,VALID,914.965,VALID,0,VALID,98.9626,VALID,-0.0509425,VALID,19.0206,VALID,109,VALID,0.71274,
2000-10-18, 03:30:00,VALID,914.974,VALID,0,VALID,98.9995,VALID,-0.0509425,VALID,19.0437,VALID,7,VALID,0.854601,
2000-10-18, 03:31:00,VALID,914.98,VALID,0,VALID,98.9525,VALID,-4.62593e-018,VALID,19.0171,VALID,324,VALID,0.968967,
2000-10-18, 03:32:00,VALID,914.975,VALID,0,VALID,98.9346,VALID,0.101885,VALID,19.0196,VALID,80,VALID,0.505008,
2000-10-18, 03:33:00,VALID,914.985,VALID,0,VALID,98.9219,VALID,0.0509425,VALID,19.0231,VALID,197,VALID,0.857686,
2000-10-18, 03:34:00,VALID,914.998,VALID,0,VALID,98.9181,VALID,0.0509425,VALID,19.0233,VALID,173,VALID,1.09856,
2000-10-18, 03:35:00,VALID,914.993,VALID,0,VALID,98.9207,VALID,0.0169808,VALID,19.0102,VALID,353,VALID,1.16365,
2000-10-18, 03:36:00,VALID,914.993,VALID,0,VALID,98.88,VALID,0.0339617,VALID,19.0005,VALID,148,VALID,1.3125,